This demonstration page uses our WeatherBlox Daily Observations layout. Learn more.

Left ArrowRight Arrow

39.01783, -85.05884

Hourly Observations for October 18, 2021

Temp ( °F °C ) Dew Point ( °F °C ) Humidity (%) Winds ( mph kmh ) Pressure ( in mb ) Visibility ( mi km ) Precip ( " mm )
12:52 am 00:52 Clear 46 7.8 41 5 83 83 N N/A 30.15 1021 10 16 N/A
1:52 am 01:52 Clear 45 7.2 41 5 86 86 N N/A 30.14 1021 10 16 N/A
2:52 am 02:52 Clear 44 6.7 40 4.4 85 85 S 3 6 30.15 1021 10 16 N/A
3:52 am 03:52 Clear 43 6.1 40 4.4 89 89 N N/A 30.14 1021 10 16 N/A
4:52 am 04:52 Clear 42 5.6 39 3.9 89 89 S 5 7 30.14 1021 10 16 N/A
5:52 am 05:52 Clear 41 5 39 3.9 93 93 S 3 6 30.15 1021 10 16 N/A
6:52 am 06:52 Clear 41 5 39 3.9 93 93 SSW 3 6 30.16 1021 10 16 N/A
7:52 am 07:52 Sunny 41 5 38 3.3 89 89 N N/A 30.17 1022 8 13 N/A
8:52 am 08:52 Sunny 44 6.7 41 5 89 89 N N/A 30.18 1022 8 13 N/A
9:52 am 09:52 Sunny 53 11.7 44 6.7 72 72 VRB 3 6 30.19 1022 10 16 N/A
10:52 am 10:52 Sunny 57 13.9 43 6.1 60 60 W 6 9 30.20 1023 10 16 N/A
11:52 am 11:52 Sunny 62 16.7 41 5 46 46 WSW 6 9 30.19 1022 10 16 N/A
12:52 pm 12:52 Sunny 66 18.9 39 3.9 37 37 W 9 15 30.18 1022 10 16 N/A
1:52 pm 13:52 Sunny 67 19.4 41 5 39 39 WNW 12 19 30.16 1021 10 16 N/A
2:52 pm 14:52 Sunny 68 20 39 3.9 35 35 SW 8 13 30.14 1021 10 16 N/A
3:52 pm 15:52 Sunny 69 20.6 39 3.9 33 33 W 12 19 30.13 1020 10 16 N/A
4:52 pm 16:52 Sunny 69 20.6 39 3.9 33 33 WNW 9 15 30.12 1020 10 16 N/A
5:52 pm 17:52 Sunny 67 19.4 42 5.6 41 41 W 5 7 30.13 1020 10 16 N/A
6:52 pm 18:52 Sunny 64 17.8 41 5 43 43 W 3 6 30.13 1020 10 16 N/A
7:52 pm 19:52 Clear 59 15 43 6.1 56 56 WSW 5 7 30.14 1021 10 16 N/A
8:52 pm 20:52 Clear 59 15 42 5.6 54 54 WSW 3 6 30.15 1021 10 16 N/A
9:52 pm 21:52 Clear 51 10.6 44 6.7 77 77 N N/A 30.16 1021 10 16 N/A
10:52 pm 22:52 Clear 52 11.1 45 7.2 77 77 N N/A 30.16 1021 10 16 N/A
11:52 pm 23:52 Clear 50 10 44 6.7 80 80 N N/A 30.16 1021 10 16 N/A

Powered by AerisWeather